Location: Poughquag
(41.6090°N, 73.6820°W)
Time: 14:17:22
(UTC-04:00)

DIWATA 2B (PO-101) - Pass Details

Date: 04 June 2024
Orbit: 574 x 588 km, 98.1° (Epoch: 14 June)

Event Time Altitude Azimuth Distance (km) Brightness Sun altitude
Rises 03:08:29 0° 120° (ESE) 2,783 ? -18.6°
Reaches altitude 10° 03:11:33 10° 94° (E) 1,887 ? -18.3°
Maximum altitude 03:13:37 14° 63° (ENE) 1,662 ? -18.1°
Drops below altitude 10° 03:15:40 10° 33° (NNE) 1,891 ? -17.9°
Sets 03:18:45 0° 8° (N) 2,794 ? -17.6°
